Tracking 20232 objects as of 21-Jan-2020
HD Live streaming from Space Station
objects crossing your sky now

DELTA 1 DEB

Track DELTA 1 DEB now!
10-day predictions


NORAD ID: 13563
Int'l Code: 1978-026FA
Perigee: 800.1 km
Apogee: 864.3 km
Inclination: 98.8 °
Period: 101.4 minutes
Semi major axis: 7203 km
RCS: 0.058 m2 (small)
Launch date: March 5, 1978
Source: United States (US)
Launch site: AIR FORCE WESTERN TEST RANGE (AFWTR)

Note: This is SATELLITE DEBRIS
aabbcc
Your satellite tracking list
Your tracking list is empty




NASA's NSSDC Master Catalog

Two Line Element Set (TLE):
1 13563U 78026FA  20021.50210096  .00000051  00000-0  44423-4 0  9996
2 13563  98.7917   5.7770 0044532 189.1424 296.3401 14.20087918951071
Source of the keplerian elements: AFSPC